Location: Houhaj�rvi
(61.2833°N, 23.0000°E)
Time: 07:47:03
(UTC+00:00)

ERS-1 Rocket - Pass Details

Date: 27 February 2020
Orbit: 752 x 758 km, 98.5° (Epoch: 30 March)

Event Time Altitude Azimuth Distance (km) Brightness Sun altitude
Exits shadow 20:34:05 38° 280° (W) 1,163 4.2 -32.1°
Drops below altitude 10° 20:38:15 10° 333° (NNW) 2,304 6.3 -32.4°
Sets 20:40:43 0° 341° (NNW) 3,233 7.2 -32.6°
